TimeCDT,TemperatureF,Dew PointF,Humidity,Sea Level PressureIn,VisibilityMPH,Wind Direction,Wind SpeedMPH,Gust SpeedMPH,PrecipitationIn,Events,Conditions,WindDirDegrees,DateUTC
12:15 AM,68.9,63.1,82,29.74,7.0,East,4.6,-,N/A,,Mostly Cloudy,80,2012-10-22 05:15:00
12:35 AM,69.8,64.4,83,29.73,7.0,ESE,6.9,-,N/A,,Mostly Cloudy,110,2012-10-22 05:35:00
12:55 AM,69.8,63.9,81,29.73,7.0,ESE,5.8,-,N/A,,Scattered Clouds,110,2012-10-22 05:55:00
1:15 AM,69.3,63.7,82,29.73,7.0,ESE,5.8,-,N/A,,Clear,120,2012-10-22 06:15:00
1:35 AM,68.9,63.7,83,29.72,7.0,ESE,5.8,-,N/A,,Clear,120,2012-10-22 06:35:00
1:55 AM,68.5,63.5,84,29.72,7.0,SE,5.8,-,N/A,,Clear,130,2012-10-22 06:55:00
2:15 AM,68.0,64.4,88,29.72,7.0,ESE,4.6,-,N/A,,Clear,110,2012-10-22 07:15:00
2:35 AM,67.5,63.1,86,29.71,5.0,SE,4.6,-,N/A,,Haze,130,2012-10-22 07:35:00
2:55 AM,67.3,63.0,86,29.71,5.0,SE,5.8,-,N/A,,Clear,130,2012-10-22 07:55:00
3:15 AM,67.6,63.5,87,29.71,5.0,SSE,8.1,-,N/A,,Haze,150,2012-10-22 08:15:00
3:35 AM,68.0,62.6,83,29.70,5.0,SE,5.8,-,N/A,,Haze,140,2012-10-22 08:35:00
3:55 AM,67.3,63.0,86,29.70,5.0,East,3.5,-,N/A,,Clear,100,2012-10-22 08:55:00
4:15 AM,66.0,61.9,86,29.70,4.0,NE,5.8,-,N/A,,Clear,40,2012-10-22 09:15:00
4:35 AM,63.7,60.1,88,29.71,3.0,NE,6.9,-,N/A,,Scattered Clouds,40,2012-10-22 09:35:00
4:55 AM,63.0,59.5,89,29.71,3.0,NNE,5.8,-,N/A,,Mist,30,2012-10-22 09:55:00
5:15 AM,63.5,59.9,88,29.71,3.0,NNE,8.1,-,N/A,,Overcast,30,2012-10-22 10:15:00
5:35 AM,64.4,60.8,88,29.72,4.0,NNE,10.4,-,N/A,,Overcast,30,2012-10-22 10:35:00
5:55 AM,65.3,61.7,88,29.73,4.0,NE,8.1,-,N/A,,Overcast,40,2012-10-22 10:55:00
6:15 AM,65.3,61.7,88,29.73,4.0,NNE,6.9,-,N/A,,Overcast,30,2012-10-22 11:15:00
6:35 AM,63.5,59.7,87,29.74,5.0,NNE,8.1,-,N/A,,Overcast,30,2012-10-22 11:35:00
6:55 AM,62.6,59.0,88,29.74,5.0,NNE,9.2,-,N/A,,Overcast,30,2012-10-22 11:55:00
7:15 AM,62.2,58.3,87,29.74,5.0,NE,8.1,-,N/A,,Overcast,40,2012-10-22 12:15:00
7:35 AM,61.9,58.1,87,29.75,5.0,NNE,9.2,-,N/A,,Overcast,30,2012-10-22 12:35:00
7:55 AM,61.7,57.9,87,29.75,4.0,NNE,9.2,-,N/A,,Overcast,30,2012-10-22 12:55:00
8:15 AM,61.3,57.6,87,29.76,4.0,NE,9.2,-,N/A,,Overcast,40,2012-10-22 13:15:00
8:35 AM,61.3,57.6,87,29.76,2.5,NNE,9.2,-,N/A,,Overcast,20,2012-10-22 13:35:00
8:55 AM,61.2,57.4,87,29.77,2.5,NNE,8.1,-,N/A,,Overcast,30,2012-10-22 13:55:00
9:15 AM,61.0,57.2,87,29.77,2.5,NNE,9.2,-,N/A,,Overcast,30,2012-10-22 14:15:00
9:35 AM,60.8,56.8,87,29.77,2.5,North,6.9,-,N/A,,Overcast,10,2012-10-22 14:35:00
9:55 AM,60.1,56.5,88,29.78,2.0,North,6.9,-,N/A,,Overcast,360,2012-10-22 14:55:00
10:15 AM,59.2,55.6,88,29.78,2.0,NNW,8.1,-,N/A,,Overcast,340,2012-10-22 15:15:00
10:35 AM,59.0,55.6,88,29.78,1.2,North,10.4,-,N/A,,Overcast,360,2012-10-22 15:35:00
10:55 AM,59.0,55.4,88,29.78,1.2,NNE,9.2,-,N/A,,Overcast,20,2012-10-22 15:55:00
11:15 AM,59.2,55.8,88,29.78,1.8,North,6.9,-,N/A,,Overcast,360,2012-10-22 16:15:00
11:35 AM,59.0,55.6,88,29.78,2.0,NNW,9.2,-,N/A,,Overcast,340,2012-10-22 16:35:00
11:55 AM,59.5,55.9,88,29.79,2.5,North,10.4,-,N/A,,Overcast,350,2012-10-22 16:55:00
12:15 PM,58.8,55.2,88,29.80,2.5,North,11.5,-,N/A,,Overcast,350,2012-10-22 17:15:00
12:35 PM,58.3,54.7,88,29.81,1.8,NNW,11.5,-,N/A,,Overcast,340,2012-10-22 17:35:00
12:55 PM,58.5,54.9,88,29.80,1.8,North,11.5,-,N/A,,Overcast,350,2012-10-22 17:55:00
1:15 PM,59.2,55.4,87,29.79,2.0,NNW,9.2,-,N/A,,Overcast,340,2012-10-22 18:15:00
1:35 PM,59.9,55.4,85,29.78,3.0,North,9.2,-,N/A,,Haze,360,2012-10-22 18:35:00
1:55 PM,60.1,55.6,85,29.78,4.0,NNW,10.4,-,N/A,,Overcast,340,2012-10-22 18:55:00
2:15 PM,60.4,55.4,83,29.78,4.0,North,10.4,-,N/A,,Haze,350,2012-10-22 19:15:00
2:35 PM,60.4,55.6,84,29.78,3.0,North,8.1,-,N/A,,Haze,360,2012-10-22 19:35:00
2:55 PM,60.6,55.6,83,29.78,2.5,North,6.9,-,N/A,,Haze,350,2012-10-22 19:55:00
3:15 PM,61.0,55.9,83,29.76,3.0,North,10.4,-,N/A,,Haze,350,2012-10-22 20:15:00
3:35 PM,61.2,55.9,83,29.76,3.0,NNW,6.9,-,N/A,,Haze,340,2012-10-22 20:35:00
3:55 PM,60.8,55.8,83,29.77,3.0,NW,3.5,-,N/A,,Haze,310,2012-10-22 20:55:00
4:15 PM,60.6,55.6,83,29.78,2.5,WNW,3.5,-,N/A,,Haze,300,2012-10-22 21:15:00
4:35 PM,60.8,55.4,82,29.78,2.5,WNW,5.8,-,N/A,,Haze,300,2012-10-22 21:35:00
4:55 PM,60.3,55.4,84,29.79,2.0,WNW,4.6,-,N/A,,Overcast,300,2012-10-22 21:55:00
5:15 PM,59.9,55.4,85,29.80,1.8,WNW,3.5,-,N/A,,Overcast,290,2012-10-22 22:15:00
5:35 PM,59.9,55.4,85,29.79,2.5,NW,5.8,-,N/A,,Haze,310,2012-10-22 22:35:00
5:55 PM,59.5,55.4,86,29.81,2.5,West,5.8,-,N/A,,Haze,260,2012-10-22 22:55:00
6:15 PM,59.0,54.9,86,29.81,2.5,West,5.8,-,N/A,,Overcast,270,2012-10-22 23:15:00
6:35 PM,58.5,54.9,88,29.82,2.0,WSW,4.6,-,N/A,,Overcast,250,2012-10-22 23:35:00
6:55 PM,58.1,54.7,88,29.81,1.5,West,5.8,-,N/A,,Overcast,260,2012-10-22 23:55:00
7:15 PM,57.9,54.5,88,29.81,1.8,West,5.8,-,N/A,,Overcast,280,2012-10-23 00:15:00
7:35 PM,57.4,54.1,89,29.82,2.0,West,5.8,-,N/A,,Overcast,270,2012-10-23 00:35:00
7:55 PM,57.2,54.0,89,29.82,2.5,WSW,5.8,-,N/A,,Overcast,240,2012-10-23 00:55:00
8:15 PM,57.2,53.8,88,29.83,2.5,West,5.8,-,N/A,,Overcast,260,2012-10-23 01:15:00
8:35 PM,57.2,53.6,88,29.83,3.0,West,5.8,-,N/A,,Overcast,260,2012-10-23 01:35:00
8:55 PM,56.8,53.4,88,29.82,4.0,West,10.4,-,N/A,,Overcast,280,2012-10-23 01:55:00
9:15 PM,56.3,52.7,88,29.82,5.0,WSW,5.8,-,N/A,,Overcast,250,2012-10-23 02:15:00
9:35 PM,55.8,52.3,88,29.81,4.0,West,4.6,-,N/A,,Overcast,270,2012-10-23 02:35:00
9:55 PM,55.6,52.2,88,29.80,5.0,West,3.5,-,N/A,,Overcast,280,2012-10-23 02:55:00
10:15 PM,55.6,52.2,88,29.81,4.0,WNW,5.8,-,N/A,,Overcast,290,2012-10-23 03:15:00
10:35 PM,55.4,52.2,89,29.80,3.0,West,3.5,-,N/A,,Overcast,270,2012-10-23 03:35:00
10:55 PM,55.0,51.8,89,29.80,3.0,WSW,4.6,-,N/A,,Overcast,250,2012-10-23 03:55:00
11:15 PM,54.9,51.8,89,29.81,2.0,WSW,4.6,-,N/A,,Overcast,240,2012-10-23 04:15:00
11:35 PM,54.9,51.8,89,29.82,1.2,WSW,5.8,-,N/A,,Overcast,240,2012-10-23 04:35:00